Location: Arroyo Grande
(40.2671°N, 4.2512°W)
Time: 15:37:02
(UTC+00:00)

Cosmos 1606 Rocket - Pass Details

Date: 03 February 2023
Orbit: 602 x 630 km, 82.5° (Epoch: 22 March)

Event Time Altitude Azimuth Distance (km) Brightness Sun altitude
Rises 18:30:52 0° 355° (N) 2,863 6.9 -10.5°
Reaches altitude 10° 18:33:07 10° 358° (N) 1,956 6.0 -11.0°
Maximum altitude 18:37:24 65° 81° (E) 667 3.4 -11.8°
Drops below altitude 10° 18:41:41 10° 164° (SSE) 1,949 6.1 -12.6°
Sets 18:43:55 0° 167° (SSE) 2,851 6.9 -13.0°
